Year,Month,Day,Hour,Minute,Value (Times are PST for temperature in C)
2020,06,26,00,00,17.60
2020,06,26,00,01,17.60
2020,06,26,00,02,17.60
2020,06,26,00,03,17.60
2020,06,26,00,04,17.60
2020,06,26,00,05,17.60
2020,06,26,00,06,17.60
2020,06,26,00,07,17.60
2020,06,26,00,08,17.50
2020,06,26,00,09,17.50
2020,06,26,00,10,17.50
2020,06,26,00,11,17.50
2020,06,26,00,12,17.50
2020,06,26,00,13,17.50
2020,06,26,00,14,17.50
2020,06,26,00,15,17.50
2020,06,26,00,16,17.40
2020,06,26,00,17,17.40
2020,06,26,00,18,17.40
2020,06,26,00,19,17.40
2020,06,26,00,20,17.40
2020,06,26,00,21,17.40
2020,06,26,00,22,17.40
2020,06,26,00,23,17.40
2020,06,26,00,24,17.40
2020,06,26,00,25,17.40
2020,06,26,00,26,17.30
2020,06,26,00,27,17.30
2020,06,26,00,28,17.30
2020,06,26,00,29,17.30
2020,06,26,00,30,17.30
2020,06,26,00,31,17.30
2020,06,26,00,32,17.30
2020,06,26,00,33,17.30
2020,06,26,00,34,17.30
2020,06,26,00,35,17.30
2020,06,26,00,36,17.20
2020,06,26,00,37,17.20
2020,06,26,00,38,17.20
2020,06,26,00,39,17.20
2020,06,26,00,40,17.20
2020,06,26,00,41,17.20
2020,06,26,00,42,17.20
2020,06,26,00,43,17.20
2020,06,26,00,44,17.20
2020,06,26,00,45,17.20
2020,06,26,00,46,17.20
2020,06,26,00,47,17.20
2020,06,26,00,48,17.20
2020,06,26,00,49,17.20
2020,06,26,00,50,17.20
2020,06,26,00,51,17.20
2020,06,26,00,52,17.20
2020,06,26,00,53,17.20
2020,06,26,00,54,17.10
2020,06,26,00,55,17.10
2020,06,26,00,56,17.10
2020,06,26,00,57,17.10
2020,06,26,00,58,17.20
2020,06,26,00,59,17.10
2020,06,26,01,00,17.20
2020,06,26,01,01,17.20
2020,06,26,01,02,17.20
2020,06,26,01,03,17.20
2020,06,26,01,04,17.20
2020,06,26,01,05,17.20
2020,06,26,01,06,17.20
2020,06,26,01,07,17.10
2020,06,26,01,08,17.10
2020,06,26,01,09,17.10
2020,06,26,01,10,17.10
2020,06,26,01,11,17.10
2020,06,26,01,12,17.10
2020,06,26,01,13,17.10
2020,06,26,01,14,17.10
2020,06,26,01,15,17.10
2020,06,26,01,16,17.00
2020,06,26,01,17,17.00
2020,06,26,01,18,17.00
2020,06,26,01,19,17.00
2020,06,26,01,20,17.00
2020,06,26,01,21,17.00
2020,06,26,01,22,16.90
2020,06,26,01,23,16.90
2020,06,26,01,24,16.90
2020,06,26,01,25,16.90
2020,06,26,01,26,16.90
2020,06,26,01,27,16.90
2020,06,26,01,28,16.90
2020,06,26,01,29,16.90
2020,06,26,01,30,16.90
2020,06,26,01,31,16.90
2020,06,26,01,32,16.90
2020,06,26,01,33,17.00
2020,06,26,01,34,17.00
2020,06,26,01,35,17.00
2020,06,26,01,36,17.00
2020,06,26,01,37,17.00
2020,06,26,01,38,16.90
2020,06,26,01,39,16.90
2020,06,26,01,40,16.90
2020,06,26,01,41,16.90
2020,06,26,01,42,16.90
2020,06,26,01,43,16.90
2020,06,26,01,44,16.90
2020,06,26,01,45,16.90
2020,06,26,01,46,16.90
2020,06,26,01,47,16.90
2020,06,26,01,48,16.90
2020,06,26,01,49,16.90
2020,06,26,01,50,16.90
2020,06,26,01,51,16.90
2020,06,26,01,52,16.90
2020,06,26,01,53,16.80
2020,06,26,01,54,16.80
2020,06,26,01,55,16.80
2020,06,26,01,56,16.80
2020,06,26,01,57,16.80
2020,06,26,01,58,16.80
2020,06,26,01,59,16.80
2020,06,26,02,00,16.80
2020,06,26,02,01,16.80
2020,06,26,02,02,16.80
2020,06,26,02,03,16.80
2020,06,26,02,04,16.80
2020,06,26,02,05,16.80
2020,06,26,02,06,16.80
2020,06,26,02,07,16.80
2020,06,26,02,08,16.80
2020,06,26,02,09,16.80
2020,06,26,02,10,16.80
2020,06,26,02,11,16.80
2020,06,26,02,12,16.80
2020,06,26,02,13,16.80
2020,06,26,02,14,16.90
2020,06,26,02,15,16.90
2020,06,26,02,16,16.90
2020,06,26,02,17,16.90
2020,06,26,02,18,16.90
2020,06,26,02,19,16.90
2020,06,26,02,20,16.90
2020,06,26,02,21,16.90
2020,06,26,02,22,16.90
2020,06,26,02,23,16.90
2020,06,26,02,24,16.90
2020,06,26,02,25,16.80
2020,06,26,02,26,16.80
2020,06,26,02,27,16.80
2020,06,26,02,28,16.80
2020,06,26,02,29,16.80
2020,06,26,02,30,16.80
2020,06,26,02,31,16.80
2020,06,26,02,32,16.80
2020,06,26,02,33,16.80
2020,06,26,02,34,16.80
2020,06,26,02,35,16.70
2020,06,26,02,36,16.70
2020,06,26,02,37,16.70
2020,06,26,02,38,16.70
2020,06,26,02,39,16.70
2020,06,26,02,40,16.70
2020,06,26,02,41,16.70
2020,06,26,02,42,16.70
2020,06,26,02,43,16.60
2020,06,26,02,44,16.60
2020,06,26,02,45,16.60
2020,06,26,02,46,16.60
2020,06,26,02,47,16.60
2020,06,26,02,48,16.50
2020,06,26,02,49,16.50
2020,06,26,02,50,16.50
2020,06,26,02,51,16.50
2020,06,26,02,52,16.40
2020,06,26,02,53,16.40
2020,06,26,02,54,16.40
2020,06,26,02,55,16.40
2020,06,26,02,56,16.40
2020,06,26,02,57,16.40
2020,06,26,02,58,16.40
2020,06,26,02,59,16.40
2020,06,26,03,00,16.30
2020,06,26,03,01,16.30
2020,06,26,03,02,16.30
2020,06,26,03,03,16.30
2020,06,26,03,04,16.30
2020,06,26,03,05,16.30
2020,06,26,03,06,16.20
2020,06,26,03,07,16.20
2020,06,26,03,08,16.20
2020,06,26,03,09,16.20
2020,06,26,03,10,16.20
2020,06,26,03,11,16.10
2020,06,26,03,12,16.10
2020,06,26,03,13,16.10
2020,06,26,03,14,16.10
2020,06,26,03,15,16.10
2020,06,26,03,16,16.10
2020,06,26,03,17,16.10
2020,06,26,03,18,16.10
2020,06,26,03,19,16.00
2020,06,26,03,20,16.00
2020,06,26,03,21,16.00
2020,06,26,03,22,16.00
2020,06,26,03,23,15.90
2020,06,26,03,24,15.90
2020,06,26,03,25,15.90
2020,06,26,03,26,15.90
2020,06,26,03,27,15.90
2020,06,26,03,28,15.90
2020,06,26,03,29,15.90
2020,06,26,03,30,15.90
2020,06,26,03,31,15.80
2020,06,26,03,32,15.80
2020,06,26,03,33,15.80
2020,06,26,03,34,15.80
2020,06,26,03,35,15.80
2020,06,26,03,36,15.80
2020,06,26,03,37,15.80
2020,06,26,03,38,15.80
2020,06,26,03,39,15.80
2020,06,26,03,40,15.80
2020,06,26,03,41,15.80
2020,06,26,03,42,15.70
2020,06,26,03,43,15.70
2020,06,26,03,44,15.70
2020,06,26,03,45,15.70
2020,06,26,03,46,15.70
2020,06,26,03,47,15.70
2020,06,26,03,48,15.70
2020,06,26,03,49,15.70
2020,06,26,03,50,15.70
2020,06,26,03,51,15.70
2020,06,26,03,52,15.70
2020,06,26,03,53,15.70
2020,06,26,03,54,15.70
2020,06,26,03,55,15.70
2020,06,26,03,56,15.60
2020,06,26,03,57,15.60
2020,06,26,03,58,15.60
2020,06,26,03,59,15.60
2020,06,26,04,00,15.60
2020,06,26,04,01,15.60
2020,06,26,04,02,15.50
2020,06,26,04,03,15.50
2020,06,26,04,04,15.50
2020,06,26,04,05,15.40
2020,06,26,04,06,15.40
2020,06,26,04,07,15.40
2020,06,26,04,08,15.40
2020,06,26,04,09,15.40
2020,06,26,04,10,15.40
2020,06,26,04,11,15.40
2020,06,26,04,12,15.40
2020,06,26,04,13,15.40
2020,06,26,04,14,15.40
2020,06,26,04,15,15.40
2020,06,26,04,16,15.40
2020,06,26,04,17,15.40
2020,06,26,04,18,15.40
2020,06,26,04,19,15.40
2020,06,26,04,20,15.40
2020,06,26,04,21,15.40
2020,06,26,04,22,15.40
2020,06,26,04,23,15.40
2020,06,26,04,24,15.50
2020,06,26,04,25,15.50
2020,06,26,04,26,15.50
2020,06,26,04,27,15.50
2020,06,26,04,28,15.50
2020,06,26,04,29,15.60
2020,06,26,04,30,15.60
2020,06,26,04,31,15.60
2020,06,26,04,32,15.60
2020,06,26,04,33,15.60
2020,06,26,04,34,15.60
2020,06,26,04,35,15.70
2020,06,26,04,36,15.70
2020,06,26,04,37,15.70
2020,06,26,04,38,15.70
2020,06,26,04,39,15.70
2020,06,26,04,40,15.70
2020,06,26,04,41,15.70
2020,06,26,04,42,15.70
2020,06,26,04,43,15.70
2020,06,26,04,44,15.70
2020,06,26,04,45,15.70
2020,06,26,04,46,15.70
2020,06,26,04,47,15.70
2020,06,26,04,48,15.70
2020,06,26,04,49,15.70
2020,06,26,04,50,15.70
2020,06,26,04,51,15.70
2020,06,26,04,52,15.70
2020,06,26,04,53,15.70
2020,06,26,04,54,15.70
2020,06,26,04,55,15.70
2020,06,26,04,56,15.70
2020,06,26,04,57,15.70
2020,06,26,04,58,15.70
2020,06,26,04,59,15.70
2020,06,26,05,00,15.70
2020,06,26,05,01,15.70
2020,06,26,05,02,15.70
2020,06,26,05,03,15.70
2020,06,26,05,04,15.70
2020,06,26,05,05,15.70
2020,06,26,05,06,15.70
2020,06,26,05,07,15.70
2020,06,26,05,08,15.70
2020,06,26,05,09,15.70
2020,06,26,05,10,15.70
2020,06,26,05,11,15.70
2020,06,26,05,12,15.70
2020,06,26,05,13,15.70
2020,06,26,05,14,15.70
2020,06,26,05,15,15.70
2020,06,26,05,16,15.70
2020,06,26,05,17,15.70
2020,06,26,05,18,15.70
2020,06,26,05,19,15.70
2020,06,26,05,20,15.80
2020,06,26,05,21,15.80
2020,06,26,05,22,15.80
2020,06,26,05,23,15.80
2020,06,26,05,24,15.80
2020,06,26,05,25,15.80
2020,06,26,05,26,15.80
2020,06,26,05,27,15.80
2020,06,26,05,28,15.80
2020,06,26,05,29,15.90
2020,06,26,05,30,15.90
2020,06,26,05,31,15.90
2020,06,26,05,32,15.90
2020,06,26,05,33,15.90
2020,06,26,05,34,15.90
2020,06,26,05,35,15.90
2020,06,26,05,36,15.90
2020,06,26,05,37,15.90
2020,06,26,05,38,15.90
2020,06,26,05,39,15.80
2020,06,26,05,40,15.80
2020,06,26,05,41,15.80
2020,06,26,05,42,15.80
2020,06,26,05,43,15.80
2020,06,26,05,44,15.80
2020,06,26,05,45,15.80
2020,06,26,05,46,15.80
2020,06,26,05,47,15.80
2020,06,26,05,48,15.80
2020,06,26,05,49,15.80
2020,06,26,05,50,15.80
2020,06,26,05,51,15.70
2020,06,26,05,52,15.70
2020,06,26,05,53,15.80
2020,06,26,05,54,15.80
2020,06,26,05,55,15.80
2020,06,26,05,56,15.80
2020,06,26,05,57,15.80
2020,06,26,05,58,15.80
2020,06,26,05,59,15.80
2020,06,26,06,00,15.80
2020,06,26,06,01,15.80
2020,06,26,06,02,15.80
2020,06,26,06,03,15.80
2020,06,26,06,04,15.80
2020,06,26,06,05,15.90
2020,06,26,06,06,15.90
2020,06,26,06,07,15.80
2020,06,26,06,08,15.80
2020,06,26,06,09,15.80
2020,06,26,06,10,15.80
2020,06,26,06,11,15.80
2020,06,26,06,12,15.80
2020,06,26,06,13,15.80
2020,06,26,06,14,15.80
2020,06,26,06,15,15.80
2020,06,26,06,16,15.80
2020,06,26,06,17,15.80
2020,06,26,06,18,15.80
2020,06,26,06,19,15.80
2020,06,26,06,20,15.80
2020,06,26,06,21,15.80
2020,06,26,06,22,15.80
2020,06,26,06,23,15.80
2020,06,26,06,24,15.80
2020,06,26,06,25,15.80
2020,06,26,06,26,15.80
2020,06,26,06,27,15.80
2020,06,26,06,28,15.80
2020,06,26,06,29,15.80
2020,06,26,06,30,15.80
2020,06,26,06,31,15.80
2020,06,26,06,32,15.80
2020,06,26,06,33,15.80
2020,06,26,06,34,15.80
2020,06,26,06,35,15.80
2020,06,26,06,36,15.80
2020,06,26,06,37,15.80
2020,06,26,06,38,15.80
2020,06,26,06,39,15.80
2020,06,26,06,40,15.80
2020,06,26,06,41,15.80
2020,06,26,06,42,15.90
2020,06,26,06,43,15.90
2020,06,26,06,44,15.90
2020,06,26,06,45,15.90
2020,06,26,06,46,15.90
2020,06,26,06,47,15.90
2020,06,26,06,48,16.00
2020,06,26,06,49,16.00
2020,06,26,06,50,16.00
2020,06,26,06,51,16.00
2020,06,26,06,52,16.00
2020,06,26,06,53,16.10
2020,06,26,06,54,16.10
2020,06,26,06,55,16.10
2020,06,26,06,56,16.10
2020,06,26,06,57,16.10
2020,06,26,06,58,16.10
2020,06,26,06,59,16.10
2020,06,26,07,00,16.10
2020,06,26,07,01,16.20
2020,06,26,07,02,16.20
2020,06,26,07,03,16.20
2020,06,26,07,04,16.20
2020,06,26,07,05,16.20
2020,06,26,07,06,16.20
2020,06,26,07,07,16.20
2020,06,26,07,08,16.20
2020,06,26,07,09,16.20
2020,06,26,07,10,16.30
2020,06,26,07,11,16.30
2020,06,26,07,12,16.30
2020,06,26,07,13,16.30
2020,06,26,07,14,16.30
2020,06,26,07,15,16.30
2020,06,26,07,16,16.30
2020,06,26,07,17,16.30
2020,06,26,07,18,16.30
2020,06,26,07,19,16.40
2020,06,26,07,20,16.40
2020,06,26,07,21,16.40
2020,06,26,07,22,16.40
2020,06,26,07,23,16.40
2020,06,26,07,24,16.50
2020,06,26,07,25,16.50
2020,06,26,07,26,16.50
2020,06,26,07,27,16.60
2020,06,26,07,28,16.60
2020,06,26,07,29,16.60
2020,06,26,07,30,16.70
2020,06,26,07,31,16.70
2020,06,26,07,32,16.70
2020,06,26,07,33,16.70
2020,06,26,07,34,16.70
2020,06,26,07,35,16.70
2020,06,26,07,36,16.70
2020,06,26,07,37,16.80
2020,06,26,07,38,16.80
2020,06,26,07,39,16.90
2020,06,26,07,40,16.90
2020,06,26,07,41,17.00
2020,06,26,07,42,17.10
2020,06,26,07,43,17.20
2020,06,26,07,44,17.30
2020,06,26,07,45,17.30
2020,06,26,07,46,17.40
2020,06,26,07,47,17.40
2020,06,26,07,48,17.50
2020,06,26,07,49,17.50
2020,06,26,07,50,17.60
2020,06,26,07,51,17.60
2020,06,26,07,52,17.60
2020,06,26,07,53,17.70
2020,06,26,07,54,17.70
2020,06,26,07,55,17.70
2020,06,26,07,56,17.70
2020,06,26,07,57,17.80
2020,06,26,07,58,17.80
2020,06,26,07,59,17.90
2020,06,26,08,00,17.90
2020,06,26,08,01,18.00
2020,06,26,08,02,18.00
2020,06,26,08,03,18.10
2020,06,26,08,04,18.20
2020,06,26,08,05,18.20
2020,06,26,08,06,18.20
2020,06,26,08,07,18.30
2020,06,26,08,08,18.30
2020,06,26,08,09,18.30
2020,06,26,08,10,18.20
2020,06,26,08,11,18.20
2020,06,26,08,12,18.20
2020,06,26,08,13,18.20
2020,06,26,08,14,18.20
2020,06,26,08,15,18.20
2020,06,26,08,16,18.30
2020,06,26,08,17,18.30
2020,06,26,08,18,18.30
2020,06,26,08,19,18.40
2020,06,26,08,20,18.50
2020,06,26,08,21,18.50
2020,06,26,08,22,18.60
2020,06,26,08,23,18.60
2020,06,26,08,24,18.60
2020,06,26,08,25,18.60
2020,06,26,08,26,18.60
2020,06,26,08,27,18.70
2020,06,26,08,28,18.70
2020,06,26,08,29,18.80
2020,06,26,08,30,18.80
2020,06,26,08,31,18.90
2020,06,26,08,32,18.90
2020,06,26,08,33,18.90
2020,06,26,08,34,19.00
2020,06,26,08,35,19.00
2020,06,26,08,36,19.10
2020,06,26,08,37,19.10
2020,06,26,08,38,19.10
2020,06,26,08,39,19.10
2020,06,26,08,40,19.10
2020,06,26,08,41,19.10
2020,06,26,08,42,19.20
2020,06,26,08,43,19.20
2020,06,26,08,44,19.20
2020,06,26,08,45,19.20
2020,06,26,08,46,19.20
2020,06,26,08,47,19.20
2020,06,26,08,48,19.20
2020,06,26,08,49,19.20
2020,06,26,08,50,19.20
2020,06,26,08,51,19.20
2020,06,26,08,52,19.20
2020,06,26,08,53,19.20
2020,06,26,08,54,19.20
2020,06,26,08,55,19.30
2020,06,26,08,56,19.40
2020,06,26,08,57,19.50
2020,06,26,08,58,19.50
2020,06,26,08,59,19.60
2020,06,26,09,00,19.60
2020,06,26,09,01,19.60
2020,06,26,09,02,19.60
2020,06,26,09,03,19.60
2020,06,26,09,04,19.60
2020,06,26,09,05,19.60
2020,06,26,09,06,19.70
2020,06,26,09,07,19.60
2020,06,26,09,08,19.60
2020,06,26,09,09,19.70
2020,06,26,09,10,19.70
2020,06,26,09,11,19.70
2020,06,26,09,12,19.70
2020,06,26,09,13,19.70
2020,06,26,09,14,19.70
2020,06,26,09,15,19.70
2020,06,26,09,16,19.80
2020,06,26,09,17,19.80
2020,06,26,09,18,19.80
2020,06,26,09,19,19.80
2020,06,26,09,20,19.80
2020,06,26,09,21,19.80
2020,06,26,09,22,19.80
2020,06,26,09,23,19.80
2020,06,26,09,24,19.80
2020,06,26,09,25,19.80
2020,06,26,09,26,19.90
2020,06,26,09,27,19.90
2020,06,26,09,28,20.00
2020,06,26,09,29,20.00
2020,06,26,09,30,20.00
2020,06,26,09,31,20.00
2020,06,26,09,32,20.00
2020,06,26,09,33,19.90
2020,06,26,09,34,20.00
2020,06,26,09,35,20.00
2020,06,26,09,36,20.00
2020,06,26,09,37,20.00
2020,06,26,09,38,20.00
2020,06,26,09,39,19.90
2020,06,26,09,40,19.90
2020,06,26,09,41,19.90
2020,06,26,09,42,19.90
2020,06,26,09,43,19.90
2020,06,26,09,44,19.90
2020,06,26,09,45,19.80
2020,06,26,09,46,19.80
2020,06,26,09,47,19.80
2020,06,26,09,48,19.80
2020,06,26,09,49,19.70
2020,06,26,09,50,19.70
2020,06,26,09,51,19.70
2020,06,26,09,52,19.80
2020,06,26,09,53,19.80
2020,06,26,09,54,19.80
2020,06,26,09,55,19.80
2020,06,26,09,56,19.80
2020,06,26,09,57,19.80
2020,06,26,09,58,19.80
2020,06,26,09,59,19.80
2020,06,26,10,00,19.80
2020,06,26,10,01,19.80
2020,06,26,10,02,19.80
2020,06,26,10,03,19.80
2020,06,26,10,04,19.80
2020,06,26,10,05,19.80
2020,06,26,10,06,19.90
2020,06,26,10,07,19.90
2020,06,26,10,08,19.90
2020,06,26,10,09,19.90
2020,06,26,10,10,19.90
2020,06,26,10,11,19.80
2020,06,26,10,12,19.80
2020,06,26,10,13,19.80
2020,06,26,10,14,19.80
2020,06,26,10,15,19.80
2020,06,26,10,16,19.80
2020,06,26,10,17,19.80
2020,06,26,10,18,19.80
2020,06,26,10,19,19.80
2020,06,26,10,20,19.80
2020,06,26,10,21,19.80
2020,06,26,10,22,19.80
2020,06,26,10,23,19.80
2020,06,26,10,24,19.90
2020,06,26,10,25,19.90
2020,06,26,10,26,19.90
2020,06,26,10,27,20.00
2020,06,26,10,28,20.00
2020,06,26,10,29,20.00
2020,06,26,10,30,20.00
2020,06,26,10,31,20.10
2020,06,26,10,32,20.10
2020,06,26,10,33,20.20
2020,06,26,10,34,20.20
2020,06,26,10,35,20.30
2020,06,26,10,36,20.30
2020,06,26,10,37,20.40
2020,06,26,10,38,20.40
2020,06,26,10,39,20.40
2020,06,26,10,40,20.50
2020,06,26,10,41,20.50
2020,06,26,10,42,20.40
2020,06,26,10,43,20.40
2020,06,26,10,44,20.40
2020,06,26,10,45,20.40
2020,06,26,10,46,20.40
2020,06,26,10,47,20.30
2020,06,26,10,48,20.30
2020,06,26,10,49,20.20
2020,06,26,10,50,20.20
2020,06,26,10,51,20.20
2020,06,26,10,52,20.10
2020,06,26,10,53,20.10
2020,06,26,10,54,20.10
2020,06,26,10,55,20.00
2020,06,26,10,56,20.00
2020,06,26,10,57,20.00
2020,06,26,10,58,20.00
2020,06,26,10,59,20.00
2020,06,26,11,00,20.00
2020,06,26,11,01,20.00
2020,06,26,11,02,20.00
2020,06,26,11,03,19.90
2020,06,26,11,04,19.90
2020,06,26,11,05,19.90
2020,06,26,11,06,19.90
2020,06,26,11,07,19.90
2020,06,26,11,08,19.90
2020,06,26,11,09,19.90
2020,06,26,11,10,19.90
2020,06,26,11,11,19.90
2020,06,26,11,12,20.00
2020,06,26,11,13,20.00
2020,06,26,11,14,20.10
2020,06,26,11,15,20.10
2020,06,26,11,16,20.10
2020,06,26,11,17,20.10
2020,06,26,11,18,20.10
2020,06,26,11,19,20.20
2020,06,26,11,20,20.20
2020,06,26,11,21,20.30
2020,06,26,11,22,20.30
2020,06,26,11,23,20.30
2020,06,26,11,24,20.30
2020,06,26,11,25,20.30
2020,06,26,11,26,20.30
2020,06,26,11,27,20.20
2020,06,26,11,28,20.10
2020,06,26,11,29,20.10
2020,06,26,11,30,20.00
2020,06,26,11,31,20.00
2020,06,26,11,32,19.90
2020,06,26,11,33,19.80
2020,06,26,11,34,19.80
2020,06,26,11,35,19.70
2020,06,26,11,36,19.70
2020,06,26,11,37,19.70
2020,06,26,11,38,19.70
2020,06,26,11,39,19.70
2020,06,26,11,40,19.70
2020,06,26,11,41,19.70
2020,06,26,11,42,19.70
2020,06,26,11,43,19.70
2020,06,26,11,44,19.70
2020,06,26,11,45,19.70
2020,06,26,11,46,19.70
2020,06,26,11,47,19.70
2020,06,26,11,48,19.70
2020,06,26,11,49,19.70
2020,06,26,11,50,19.70
2020,06,26,11,51,19.70
2020,06,26,11,52,19.80
2020,06,26,11,53,19.80
2020,06,26,11,54,19.80
2020,06,26,11,55,19.80
2020,06,26,11,56,19.70
2020,06,26,11,57,19.70
2020,06,26,11,58,19.70
2020,06,26,11,59,19.60
2020,06,26,12,00,19.50
2020,06,26,12,01,19.40
2020,06,26,12,02,19.40
2020,06,26,12,03,19.30
2020,06,26,12,04,19.20
2020,06,26,12,05,19.10
2020,06,26,12,06,18.90
2020,06,26,12,07,18.80
2020,06,26,12,08,18.70
2020,06,26,12,09,18.70
2020,06,26,12,10,18.50
2020,06,26,12,11,18.40
2020,06,26,12,12,18.30
2020,06,26,12,13,18.30
2020,06,26,12,14,18.20
2020,06,26,12,15,18.20
2020,06,26,12,16,18.20
2020,06,26,12,17,18.10
2020,06,26,12,18,18.10
2020,06,26,12,19,18.10
2020,06,26,12,20,18.10
2020,06,26,12,21,18.10
2020,06,26,12,22,18.10
2020,06,26,12,23,18.10
2020,06,26,12,24,18.10
2020,06,26,12,25,18.10
2020,06,26,12,26,18.10
2020,06,26,12,27,18.10
2020,06,26,12,28,18.10
2020,06,26,12,29,18.10
2020,06,26,12,30,18.10
2020,06,26,12,31,18.00
2020,06,26,12,32,17.90
2020,06,26,12,33,17.90
2020,06,26,12,34,17.80
2020,06,26,12,35,17.80
2020,06,26,12,36,17.70
2020,06,26,12,37,17.70
2020,06,26,12,38,17.70
2020,06,26,12,39,17.60
2020,06,26,12,40,17.60
2020,06,26,12,41,17.60
2020,06,26,12,42,17.50
2020,06,26,12,43,17.50
2020,06,26,12,44,17.50
2020,06,26,12,45,17.50
2020,06,26,12,46,17.50
2020,06,26,12,47,17.50
2020,06,26,12,48,17.50
2020,06,26,12,49,17.60
2020,06,26,12,50,17.60
2020,06,26,12,51,17.70
2020,06,26,12,52,17.70
2020,06,26,12,53,17.70
2020,06,26,12,54,17.70
2020,06,26,12,55,17.60
2020,06,26,12,56,17.60
2020,06,26,12,57,17.50
2020,06,26,12,58,17.50
2020,06,26,12,59,17.40
2020,06,26,13,00,17.40
2020,06,26,13,01,17.40
2020,06,26,13,02,17.40
2020,06,26,13,03,17.40
2020,06,26,13,04,17.40
2020,06,26,13,05,17.40
2020,06,26,13,06,17.40
2020,06,26,13,07,17.40
2020,06,26,13,08,17.40
2020,06,26,13,09,17.40
2020,06,26,13,10,17.40
2020,06,26,13,11,17.40
2020,06,26,13,12,17.40
2020,06,26,13,13,17.40
2020,06,26,13,14,17.40
2020,06,26,13,15,17.40
2020,06,26,13,16,17.40
2020,06,26,13,17,17.50
2020,06,26,13,18,17.50
2020,06,26,13,19,17.50
2020,06,26,13,20,17.50
2020,06,26,13,21,17.50
2020,06,26,13,22,17.50
2020,06,26,13,23,17.50
2020,06,26,13,24,17.50
2020,06,26,13,25,17.50
2020,06,26,13,26,17.50
2020,06,26,13,27,17.50
2020,06,26,13,28,17.60
2020,06,26,13,29,17.50
2020,06,26,13,30,17.50
2020,06,26,13,31,17.40
2020,06,26,13,32,17.40
2020,06,26,13,33,17.40
2020,06,26,13,34,17.40
2020,06,26,13,35,17.30
2020,06,26,13,36,17.20
2020,06,26,13,37,17.20
2020,06,26,13,38,17.20
2020,06,26,13,39,17.10
2020,06,26,13,40,17.10
2020,06,26,13,41,17.00
2020,06,26,13,42,17.10
2020,06,26,13,43,17.00
2020,06,26,13,44,17.00
2020,06,26,13,45,16.90
2020,06,26,13,46,16.90
2020,06,26,13,47,16.90
2020,06,26,13,48,16.90
2020,06,26,13,49,16.90
2020,06,26,13,50,16.90
2020,06,26,13,51,16.90
2020,06,26,13,52,16.90
2020,06,26,13,53,16.90
2020,06,26,13,54,16.90
2020,06,26,13,55,17.00
2020,06,26,13,56,17.00
2020,06,26,13,57,17.00
2020,06,26,13,58,17.00
2020,06,26,13,59,17.00
2020,06,26,14,00,17.10
2020,06,26,14,01,17.10
2020,06,26,14,02,17.20
2020,06,26,14,03,17.20
2020,06,26,14,04,17.20
2020,06,26,14,05,17.20
2020,06,26,14,06,17.30
2020,06,26,14,07,17.30
2020,06,26,14,08,17.30
2020,06,26,14,09,17.30
2020,06,26,14,10,17.30
2020,06,26,14,11,17.30
2020,06,26,14,12,17.40
2020,06,26,14,13,17.40
2020,06,26,14,14,17.40
2020,06,26,14,15,17.40
2020,06,26,14,16,17.50
2020,06,26,14,17,17.50
2020,06,26,14,18,17.40
2020,06,26,14,19,17.50
2020,06,26,14,20,17.50
2020,06,26,14,21,17.50
2020,06,26,14,22,17.50
2020,06,26,14,23,17.60
2020,06,26,14,24,17.60
2020,06,26,14,25,17.60
2020,06,26,14,26,17.60
2020,06,26,14,27,17.60
2020,06,26,14,28,17.60
2020,06,26,14,29,17.70
2020,06,26,14,30,17.70
2020,06,26,14,31,17.70
2020,06,26,14,32,17.70
2020,06,26,14,33,17.70
2020,06,26,14,34,17.70
2020,06,26,14,35,17.70
2020,06,26,14,36,17.70
2020,06,26,14,37,17.70
2020,06,26,14,38,17.70
2020,06,26,14,39,17.70
2020,06,26,14,40,17.70
2020,06,26,14,41,17.70
2020,06,26,14,42,17.70
2020,06,26,14,43,17.60
2020,06,26,14,44,17.50
2020,06,26,14,45,17.50
2020,06,26,14,46,17.40
2020,06,26,14,47,17.40
2020,06,26,14,48,17.40
2020,06,26,14,49,17.40
2020,06,26,14,50,17.30
2020,06,26,14,51,17.30
2020,06,26,14,52,17.30
2020,06,26,14,53,17.30
2020,06,26,14,54,17.30
2020,06,26,14,55,17.30
2020,06,26,14,56,17.30
2020,06,26,14,57,17.30
2020,06,26,14,58,17.30
2020,06,26,14,59,17.30
2020,06,26,15,00,17.30
2020,06,26,15,01,17.30
2020,06,26,15,02,17.30
2020,06,26,15,03,17.30
2020,06,26,15,04,17.30
2020,06,26,15,05,17.30
2020,06,26,15,06,17.40
2020,06,26,15,07,17.40
2020,06,26,15,08,17.40
2020,06,26,15,09,17.40
2020,06,26,15,10,17.40
2020,06,26,15,11,17.40
2020,06,26,15,12,17.50
2020,06,26,15,13,17.50
2020,06,26,15,14,17.50
2020,06,26,15,15,17.50
2020,06,26,15,16,17.50
2020,06,26,15,17,17.60
2020,06,26,15,18,17.60
2020,06,26,15,19,17.60
2020,06,26,15,20,17.60
2020,06,26,15,21,17.50
2020,06,26,15,22,17.50
2020,06,26,15,23,17.50
2020,06,26,15,24,17.50
2020,06,26,15,25,17.50
2020,06,26,15,26,17.50
2020,06,26,15,27,17.60
2020,06,26,15,28,17.60
2020,06,26,15,29,17.60
2020,06,26,15,30,17.70
2020,06,26,15,31,17.70
2020,06,26,15,32,17.70
2020,06,26,15,33,17.70
2020,06,26,15,34,17.80
2020,06,26,15,35,17.80
2020,06,26,15,36,17.90
2020,06,26,15,37,18.00
2020,06,26,15,38,18.20
2020,06,26,15,39,18.30
2020,06,26,15,40,18.30
2020,06,26,15,41,18.30
2020,06,26,15,42,18.30
2020,06,26,15,43,18.40
2020,06,26,15,44,18.40
2020,06,26,15,45,18.50
2020,06,26,15,46,18.60
2020,06,26,15,47,18.70
2020,06,26,15,48,18.80
2020,06,26,15,49,18.90
2020,06,26,15,50,18.90
2020,06,26,15,51,19.00
2020,06,26,15,52,19.10
2020,06,26,15,53,19.20
2020,06,26,15,54,19.10
2020,06,26,15,55,19.20
2020,06,26,15,56,19.20
2020,06,26,15,57,19.20
2020,06,26,15,58,19.20
2020,06,26,15,59,19.20
2020,06,26,16,00,19.10
2020,06,26,16,01,19.20
2020,06,26,16,02,19.20
2020,06,26,16,03,19.30
2020,06,26,16,04,19.30
2020,06,26,16,05,19.40
2020,06,26,16,06,19.50
2020,06,26,16,07,19.70
2020,06,26,16,08,19.80
2020,06,26,16,09,19.80
2020,06,26,16,10,19.90
2020,06,26,16,11,19.90
2020,06,26,16,12,19.90
2020,06,26,16,13,19.90
2020,06,26,16,14,19.90
2020,06,26,16,15,19.90
2020,06,26,16,16,20.00
2020,06,26,16,17,20.10
2020,06,26,16,18,20.00
2020,06,26,16,19,19.90
2020,06,26,16,20,19.90
2020,06,26,16,21,19.90
2020,06,26,16,22,19.90
2020,06,26,16,23,20.00
2020,06,26,16,24,20.00
2020,06,26,16,25,20.00
2020,06,26,16,26,20.00
2020,06,26,16,27,20.00
2020,06,26,16,28,20.00
2020,06,26,16,29,19.90
2020,06,26,16,30,20.00
2020,06,26,16,31,20.00
2020,06,26,16,32,20.00
2020,06,26,16,33,19.90
2020,06,26,16,34,19.90
2020,06,26,16,35,19.80
2020,06,26,16,36,19.80
2020,06,26,16,37,19.70
2020,06,26,16,38,19.80
2020,06,26,16,39,19.80
2020,06,26,16,40,19.80
2020,06,26,16,41,19.90
2020,06,26,16,42,19.90
2020,06,26,16,43,19.80
2020,06,26,16,44,19.80
2020,06,26,16,45,19.70
2020,06,26,16,46,19.80
2020,06,26,16,47,19.70
2020,06,26,16,48,19.60
2020,06,26,16,49,19.50
2020,06,26,16,50,19.50
2020,06,26,16,51,19.50
2020,06,26,16,52,19.50
2020,06,26,16,53,19.50
2020,06,26,16,54,19.50
2020,06,26,16,55,19.50
2020,06,26,16,56,19.50
2020,06,26,16,57,19.50
2020,06,26,16,58,19.40
2020,06,26,16,59,19.30
2020,06,26,17,00,19.20
2020,06,26,17,01,19.20
2020,06,26,17,02,19.10
2020,06,26,17,03,19.10
2020,06,26,17,04,19.10
2020,06,26,17,05,19.10
2020,06,26,17,06,19.10
2020,06,26,17,07,19.10
2020,06,26,17,08,19.10
2020,06,26,17,09,19.10
2020,06,26,17,10,19.10
2020,06,26,17,11,19.10
2020,06,26,17,12,19.00
2020,06,26,17,13,19.00
2020,06,26,17,14,19.10
2020,06,26,17,15,19.10
2020,06,26,17,16,19.20
2020,06,26,17,17,19.20
2020,06,26,17,18,19.30
2020,06,26,17,19,19.30